Regional Weather Roundup
Issued by NWS

Home | Current Version | Previous Version | Text Only | Print | Product List | Glossary On
Versions: 1 2 3 4 5 6 7 8 9 10 11 12 13 14 15 16 17 18 19 20 21 22 23 24 25 26 27 28 29 30 31 32 33 34 35 36 37 38 39 40 41 42 43 44 45 46 47 48 49 50
000
ASUS43 KDMX 310004
RWRIA

WEATHER ROUNDUP FOR IOWA
NATIONAL WEATHER SERVICE DES MOINES IA
  ISSUED BY NWS QUAD CITIES IA IL
600 PM CST FRI JAN 30 2015

NOTE: "FAIR" INDICATES FEW OR NO CLOUDS BELOW 12,000 FEET WITH NO
SIGNIFICANT WEATHER AND/OR OBSTRUCTIONS TO VISIBILITY.

* - THESE STATIONS ARE NOT NWS STATIONS...THUS NOT UNDER NWS
QUALITY CONTROL.  THEY ALSO DO NOT REPORT WEATHER SUCH
AS PRECIPITATION OR FOG.

IAZ001>003-012>014-020>022-031>034-043>046-310100-
   NORTHWEST IOWA

CITY           SKY/WX    TMP DP  RH WIND       PRES   REMARKS
CARROLL *      CLEAR     30  23  74 S10       30.31F WCI  21
CHEROKEE *     CLEAR     32  26  77 S9        30.26F WCI  24
6HR MIN TEMP:  27; 6HR MAX TEMP:  35;

DENNISON *     CLEAR     32  25  74 S12       30.28F WCI  23
LE MARS *      PTCLDY    34  27  75 S9        30.24F WCI  26
SIOUX CITY     PTCLDY    36  27  69 S10       30.26F WCI  28
6HR MIN TEMP:  31; 6HR MAX TEMP:  41;

SPENCER        CLEAR     32  25  75 S9        30.24F WCI  24
6HR MIN TEMP:  27; 6HR MAX TEMP:  35;

$$

IAZ055>058-069>071-079>083-090>094-310100-
   SOUTHWEST IOWA

CITY           SKY/WX    TMP DP  RH WIND       PRES   REMARKS
ATLANTIC *     CLEAR     32  21  64 S9        30.33F WCI  24
AUDUBON *      CLEAR     30  21  69 S7        30.33F WCI  23
CLARINDA *     MOCLDY    30  19  64 S6        30.38F WCI  24
COUNCIL BLFS * MOCLDY    30  25  80 S9        30.30F WCI  22
CRESTON *      CLEAR     28  18  64 S7        30.36F WCI  21
HARLAN *       CLEAR     32  23  69 S9        30.35F WCI  24
LAMONI         CLEAR     30  13  49 S7        30.38F WCI  23
6HR MIN TEMP:  28; 6HR MAX TEMP:  36;

$$

IAZ047>049-059>061-072>074-084-310100-
   CENTRAL IOWA

CITY           SKY/WX    TMP DP  RH WIND       PRES   REMARKS
AMES           CLEAR     26  16  65 S7        30.35F WCI  18
6HR MIN TEMP:  24; 6HR MAX TEMP:  33;

ANKENY *       CLEAR     30  16  55 CALM      30.37F
BOONE *        CLEAR     28  21  74 S8        30.32F WCI  20
CHARITON *     CLEAR     30  16  55 S7        30.38F WCI  23
DES MOINES     MOCLDY    32  14  47 S6        30.37F WCI  26
6HR MIN TEMP:  27; 6HR MAX TEMP:  36;

GRINNELL *     CLEAR     27  17  68 S3        30.38F
6HR MIN TEMP:  25; 6HR MAX TEMP:  31;

MARSHALLTOWN   CLEAR     26  16  65 S7        30.36F WCI  18
6HR MIN TEMP:  24; 6HR MAX TEMP:  31;

PERRY *          N/A     30  22  70 S7        30.34F WCI  23
6HR MIN TEMP:  27; 6HR MAX TEMP:  36;

$$

IAZ004>006-015-016-023>025-035-036-310100-
   NORTH CENTRAL IOWA

CITY           SKY/WX    TMP DP  RH WIND       PRES   REMARKS
ALGONA *       CLEAR     30  25  80 S14       30.28F WCI  20
CLARION *      CLEAR     30  23  74 S12       30.31F WCI  21
ESTHERVILLE    CLEAR     30  24  78 S14       30.23F WCI  19
6HR MIN TEMP:  24; 6HR MAX TEMP:  31;

FORT DODGE *   CLEAR     30  18  59 S8        30.31F WCI  23
6HR MIN TEMP:  27; 6HR MAX TEMP:  34;

MASON CITY     CLEAR     26  19  74 S10       30.32F WCI  16
6HR MIN TEMP:  22; 6HR MAX TEMP:  29;

WEBSTER CITY * CLEAR     30  21  69 S10       30.30F WCI  21
IOWA FALLS *   FAIR      28  19  71 S7        30.35F WCI  20
6HR MIN TEMP:  24; 6HR MAX TEMP:  31;

$$

IAZ007>011-017>019-026>030-037>042-050>054-066-310100-
   NORTHEAST IOWA

CITY           SKY/WX    TMP DP  RH WIND       PRES   REMARKS
CEDAR RAPIDS   CLEAR     24  15  68 S6        30.39F WCI  17
6HR MIN TEMP:  24; 6HR MAX TEMP:  30;

CHARLES CITY * CLEAR     25  14  63 S9        30.34F WCI  15
CLINTON *      CLEAR     23  16  74 SW3       30.44F
6HR MIN TEMP:  21; 6HR MAX TEMP:  27;

DECORAH *      CLEAR     25   9  50 S5        30.32F WCI  19
DUBUQUE        CLEAR     20  13  74 S8        30.38F WCI  10
6HR MIN TEMP:  20; 6HR MAX TEMP:  26;

MONTICELLO *   CLEAR     25  16  68 S7        30.39F WCI  17
OELWEIN *      CLEAR     25  14  63 S9        30.36F WCI  15
WATERLOO       CLEAR     24  13  62 S8        30.36F WCI  15
6HR MIN TEMP:  23; 6HR MAX TEMP:  29;

$$

IAZ064-065-067-068-078-310100-
   EAST CENTRAL IOWA

CITY           SKY/WX    TMP DP  RH WIND       PRES   REMARKS
DAVENPORT      CLEAR     25  14  63 S6        30.42F WCI  18
6HR MIN TEMP:  24; 6HR MAX TEMP:  29;

IOWA CITY      CLEAR     27  16  63 SW3       30.42F
6HR MIN TEMP:  25; 6HR MAX TEMP:  31;

MT. PLEASANT * CLEAR     27  19  70 S5        30.43F WCI  22
6HR MIN TEMP:  27; 6HR MAX TEMP:  33;

MUSCATINE *    CLEAR     28  21  74 S5        30.43F WCI  23
QUAD CITIES    CLEAR     27  17  66 S3        30.42F
6HR MIN TEMP:  26; 6HR MAX TEMP:  31;

$$

IAZ062-063-075>077-085>089-095>099-310100-
   SOUTHEAST IOWA

CITY           SKY/WX    TMP DP  RH WIND       PRES   REMARKS
BURLINGTON     CLEAR     27  19  72 S5        30.43F WCI  22
6HR MIN TEMP:  27; 6HR MAX TEMP:  33;

FAIRFIELD *    CLEAR     30  18  59 S7        30.41F WCI  23
FORT MADISON * CLEAR     28  18  64 S3        30.44F
KEOKUK *       CLEAR     30  18  59 CALM      30.43F
OTTUMWA        CLEAR     27  15  61 S5        30.40F WCI  22
6HR MIN TEMP:  26; 6HR MAX TEMP:  35;

WASHINGTON *   CLEAR     28  19  69 SW3       30.41F
$$

ABBREVIATIONS USED IN REMARKS
   TC - TEMPERATURES IN CELSIUS
  WCI - WIND CHILL INDEX
   HX - HEAT INDEX
  VSB - VISIBILITY
$$


USA.gov is the U.S. government's official web portal to all federal, state and local government web resources and services.